Moab, UT

6:05 AM MDT on July 22, 2017 (GMT -0600)
Canyonlands

Weather History for KCNY - July, 2013

Change the Weather History Date:

Tuesday, July 16, 2013

  Actual Average Record
Temperature  
Mean Temperature 84 °F 81 °F  
Max Temperature 95 °F 96 °F 107 °F (1951)
Min Temperature 72 °F 66 °F 52 °F (1950)
Degree Days  
Heating Degree Days 0 0  
Month to date heating degree days 0 0  
Since 1 June heating degree days 0 17  
Since 1 July heating degree days 0 0  
Cooling Degree Days 19 16  
Month to date cooling degree days 319 235  
Year to date cooling degree days 800 554  
Since 1 June cooling degree days 720 490  
Growing Degree Days 34 (Base 50)    
Moisture  
Dew Point 55 °F    
Average Humidity 43    
Maximum Humidity 64    
Minimum Humidity 22    
Precipitation  
Precipitation 0.18 in 0.03 in 1.17 in (1940)
Month to date precipitation 0.18 0.38  
Year to date precipitation 1.90 4.08  
Sea Level Pressure  
Sea Level Pressure 29.87 in    
Wind  
Wind Speed 8 mph (SSW)    
Max Wind Speed 31 mph    
Max Gust Speed 38 mph    
Visibility 10 miles    
Events Rain , Thunderstorm    
T = Trace of Precipitation, MM = Missing Value Source: NWS Daily Summary

Daily Weather History Graph

Daily Weather History Graph

Search for Another Location

Airport or City:

Trip Planner

Search our weather history database for the weather conditions in past years. The results will help you decide how hot, cold, wet, or windy it might be!

Date:

Astronomy

Jul. 16, 2013 Rise Set
Actual Time 6:07 AM MDT 8:42 PM MDT
Civil Twilight 5:36 AM MDT 9:13 PM MDT
Nautical Twilight 4:57 AM MDT 9:51 PM MDT
Astronomical Twilight 4:14 AM MDT 10:34 PM MDT
Moon 2:29 PM MDT (7/16) 12:37 AM MDT (7/16)
Length of Visible Light 15h 36m
Length of Day
14h 35m
First Quarter, 57% of the Moon is Illuminated
Jul 16
First Quarter
Jul 22
Full
Jul 29
Last Quarter
Aug 6
New
Aug 14
First Quarter

Hourly Weather History & Observations

Time (MDT) Temp. Heat Index Dew Point Humidity Pressure Visibility Wind Dir Wind Speed Gust Speed Precip Events Conditions
12:53 AM 77.0 °F - 57.9 °F 52% 29.82 in 10.0 mi SSE 15.0 mph - N/A   Mostly Cloudy
1:53 AM 77.0 °F - 55.9 °F 48% 29.81 in 10.0 mi SW 12.7 mph - N/A   Mostly Cloudy
2:53 AM 75.0 °F - 55.9 °F 51% 29.84 in 10.0 mi ESE 11.5 mph - N/A   Clear
3:53 AM 73.9 °F - 55.9 °F 53% 29.83 in 10.0 mi Calm Calm - N/A   Clear
4:53 AM 73.0 °F - 55.0 °F 53% 29.84 in 10.0 mi SE 4.6 mph - N/A   Clear
5:53 AM 73.0 °F - 57.9 °F 59% 29.85 in 10.0 mi SE 8.1 mph - N/A   Clear
6:53 AM 73.9 °F - 57.0 °F 55% 29.87 in 10.0 mi South 10.4 mph - N/A   Clear
7:53 AM 75.9 °F - 57.0 °F 52% 29.88 in 10.0 mi SSE 12.7 mph - N/A   Clear
8:53 AM 78.1 °F - 55.9 °F 46% 29.89 in 10.0 mi South 12.7 mph - N/A   Clear
9:53 AM 81.0 °F 80.8 °F 55.9 °F 42% 29.89 in 10.0 mi SE 9.2 mph - N/A   Clear
10:53 AM 82.9 °F 82.0 °F 55.0 °F 38% 29.89 in 10.0 mi ESE 5.8 mph - N/A   Clear
11:53 AM 84.0 °F 82.6 °F 54.0 °F 35% 29.89 in 10.0 mi Variable 5.8 mph - N/A   Mostly Cloudy
12:53 PM 86.0 °F 84.0 °F 53.1 °F 32% 29.87 in 10.0 mi Calm Calm - N/A   Mostly Cloudy
1:53 PM 89.1 °F - 52.0 °F 28% 29.84 in 10.0 mi Variable 4.6 mph - N/A   Clear
2:53 PM 90.0 °F - 51.1 °F 26% 29.81 in 10.0 mi SSW 10.4 mph - N/A   Mostly Cloudy
3:53 PM 93.9 °F - 50.0 °F 22% 29.79 in 10.0 mi Calm Calm - N/A   Clear
4:53 PM 93.0 °F - 50.0 °F 23% 29.78 in 10.0 mi Variable 4.6 mph - N/A   Scattered Clouds
5:53 PM 95.0 °F - 50.0 °F 22% 29.76 in 10.0 mi SW 8.1 mph - N/A   Clear
6:53 PM 91.9 °F - 48.9 °F 23% 29.75 in 10.0 mi WNW 5.8 mph - N/A   Mostly Cloudy
7:53 PM 91.0 °F - 48.9 °F 23% 29.76 in 10.0 mi West 12.7 mph - N/A   Mostly Cloudy
8:53 PM 89.1 °F - 50.0 °F 26% 29.78 in 10.0 mi West 9.2 mph - N/A   Clear
9:30 PM 87.8 °F - 51.8 °F 29% 30.00 in 10.0 mi West 15.0 mph 18.4 mph N/A Thunderstorm Partly Cloudy
9:53 PM 87.1 °F - 51.1 °F 29% 29.83 in 10.0 mi WSW 9.2 mph 21.9 mph N/A Thunderstorm Mostly Cloudy
10:16 PM 80.6 °F 80.5 °F 55.4 °F 42% 30.05 in 10.0 mi South 21.9 mph 28.8 mph 0.01 in Thunderstorm Thunderstorm
10:25 PM 75.2 °F - 64.4 °F 69% 30.05 in 1.8 mi West 11.5 mph 38.0 mph 0.16 in Rain , Thunderstorm Heavy Thunderstorms and Rain
10:31 PM 73.4 °F - 62.6 °F 69% 30.06 in 3.0 mi West 12.7 mph 36.8 mph 0.18 in Rain , Thunderstorm Thunderstorms and Rain
10:53 PM 75.0 °F - 63.0 °F 66% 29.87 in 10.0 mi Variable 6.9 mph - 0.18 in Thunderstorm Scattered Clouds
11:00 PM 75.2 °F - 62.6 °F 65% 30.05 in 10.0 mi SW 4.6 mph - N/A   Partly Cloudy
11:53 PM 75.9 °F - 63.0 °F 64% 29.88 in 10.0 mi SE 12.7 mph - N/A   Clear